Weather History for Point Mugu, CA

Change the Weather History Date:

Monday, December 9, 2013

  Actual Average Record
Temperature  
Mean Temperature 54 °F -  
Max Temperature 62 °F 62 °F 72 °F (2005)
Min Temperature 46 °F 44 °F 33 °F (2011)
Degree Days  
Heating Degree Days 11    
Growing Degree Days 4 (Base 50)    
Moisture  
Dew Point 6 °F    
Average Humidity 16    
Maximum Humidity 30    
Minimum Humidity 9    
Precipitation  
Precipitation 0.00 in - - ()
Sea Level Pressure  
Sea Level Pressure 30.26 in    
Wind  
Wind Speed 20 mph (ENE)    
Max Wind Speed 29 mph    
Max Gust Speed 41 mph    
Visibility 7 miles    
Events      
Averages and records for this station are not official NWS values.
T = Trace of Precipitation, MM = Missing Value Source: NWS Daily Summary

Daily Weather History Graph

Daily Weather History Graph

Search for Another Location

Airport:

Trip Planner

Search our weather history database for the weather conditions in past years. The results will help you decide how hot, cold, wet, or windy it might be!

Date:

Astronomy

Dec. 09, 2013 Rise Set
Actual Time 6:50 AM PST 4:47 PM PST
Civil Twilight 6:23 AM PST 5:14 PM PST
Nautical Twilight 5:51 AM PST 5:46 PM PST
Astronomical Twilight 5:21 AM PST 6:16 PM PST
Moon 12:02 PM PST (12/9) No Moon Set
Length of Visible Light 10h 51m
Length of Day
9h 56m
First Quarter, 52% of the Moon is Illuminated
Dec 9
First Quarter
Dec 17
Full
Dec 25
Last Quarter
Jan 1
New
Jan 7
First Quarter

Hourly Weather History & Observations

Time (PST) Temp. Windchill Dew Point Humidity Pressure Visibility Wind Dir Wind Speed Gust Speed Precip Events Conditions
12:54 AM 46.9 °F - 17.1 °F 30% 30.20 in - ENE 15.0 mph - N/A   Clear
1:54 AM 46.9 °F - 16.0 °F 29% 30.20 in - ENE 16.1 mph - N/A   Clear
2:54 AM 46.0 °F 39.6 °F 16.0 °F 30% 30.21 in - ENE 15.0 mph - N/A   Clear
3:54 AM 48.0 °F - 15.1 °F 27% 30.21 in - ENE 16.1 mph - N/A   Clear
4:54 AM 48.0 °F - 14.0 °F 26% 30.21 in - ENE 18.4 mph 26.5 mph N/A   Clear
5:54 AM 48.9 °F - 12.9 °F 24% 30.20 in 7.0 mi NE 23.0 mph 35.7 mph N/A   Partly Cloudy
6:54 AM 48.9 °F - 10.9 °F 22% 30.25 in 7.0 mi ENE 26.5 mph 33.4 mph N/A   Partly Cloudy
7:54 AM 51.1 °F - 9.0 °F 18% 30.27 in 7.0 mi ENE 24.2 mph 32.2 mph N/A   Partly Cloudy
8:54 AM 55.0 °F - 6.1 °F 14% 30.28 in 7.0 mi ENE 24.2 mph 31.1 mph N/A   Partly Cloudy
9:54 AM 57.0 °F - 6.1 °F 13% 30.30 in 7.0 mi NE 25.3 mph 39.1 mph N/A   Partly Cloudy
10:54 AM 59.0 °F - 5.0 °F 12% 30.29 in 7.0 mi NE 26.5 mph 38.0 mph N/A   Partly Cloudy
11:54 AM 60.1 °F - 7.0 °F 12% 30.28 in 7.0 mi NE 20.7 mph 36.8 mph N/A   Partly Cloudy
12:54 PM 62.1 °F - 1.9 °F 9% 30.27 in 7.0 mi ENE 27.6 mph 41.4 mph N/A   Partly Cloudy
1:54 PM 62.1 °F - 3.9 °F 10% 30.26 in 7.0 mi ENE 25.3 mph 36.8 mph N/A   Partly Cloudy
2:54 PM 60.1 °F - 3.0 °F 10% 30.27 in 7.0 mi NE 19.6 mph 35.7 mph N/A   Partly Cloudy
3:54 PM 57.9 °F - 5.0 °F 12% 30.27 in 7.0 mi NE 16.1 mph 28.8 mph N/A   Partly Cloudy
4:54 PM 55.9 °F - 1.0 °F 11% 30.29 in 7.0 mi ENE 23.0 mph 29.9 mph N/A   Partly Cloudy
5:54 PM 55.0 °F - -0.0 °F 11% 30.29 in 7.0 mi ENE 19.6 mph 31.1 mph N/A   Partly Cloudy
6:54 PM 55.0 °F - -0.9 °F 10% 30.30 in 7.0 mi ENE 28.8 mph 34.5 mph N/A   Partly Cloudy
7:54 PM 54.0 °F - -2.9 °F 10% 30.31 in 7.0 mi ENE 27.6 mph 34.5 mph N/A   Clear
8:54 PM 54.0 °F - -4.0 °F 9% 30.30 in 7.0 mi ENE 25.3 mph 38.0 mph N/A   Partly Cloudy
9:54 PM 54.0 °F - -4.0 °F 9% 30.30 in 7.0 mi ENE 26.5 mph 38.0 mph N/A   Partly Cloudy
10:54 PM 53.1 °F - -0.9 °F 11% 30.30 in 7.0 mi ENE 19.6 mph 27.6 mph N/A   Partly Cloudy
11:54 PM 53.1 °F - -2.0 °F 10% 30.28 in - ENE 26.5 mph 32.2 mph N/A   Clear